Weather Service Report


480 
ASUS45 KTFX 242310
RWRMT 
MONTANA REGIONAL WEATHER ROUNDUP
NATIONAL WEATHER SERVICE GREAT FALLS MT
500 PM MDT SUN MAY 24 2015

NOTE: "FAIR" INDICATES FEW OR NO CLOUDS BELOW 12000 FEET WITH NO
SIGNIFICANT WEATHER AND/OR OBSTRUCTIONS TO VISIBILITY.

MTZ001>007-043-250000-
WEST OF THE DIVIDE
  
CITY           SKY/WX    TMP DP  RH WIND       PRES   REMARKS
KALISPELL      PTCLDY    75  32  20 SE9       29.92F                  
MISSOULA       CLOUDY    69  34  27 SE13      29.95S                  
BUTTE          CLOUDY    58  36  43 NE10      30.02F                  
MULLAN PASS    MOSUNNY   59  34  39 CALM      30.01F                  
DEER LODGE       N/A     57  39  51 N9        30.05F                  
EUREKA           N/A     79  30  17 S8        29.88F                  
HAMILTON         N/A     66  36  32 N14       29.94F                  
LIBBY            N/A     81  30  16 SW3       29.86F                  
RONAN            N/A     72  39  30 SE8       29.99F                  
$$

MTZ008-052>055-250000-
SOUTHWEST MONTANA
  
CITY           SKY/WX    TMP DP  RH WIND       PRES   REMARKS
BOZEMAN        CLOUDY    60  46  59 NE6       29.99F                  
DILLON         MOSUNNY   62  36  37 NE13      29.97F                  
W YELLOWSTONE  PTSUNNY   55  32  41 NE10      29.96F                  
THREE FORKS      N/A     59  59 100 NE9       30.00S                  
TWIN BRIDGES     N/A     62  36  38 N16       29.97F                  
$$

MTZ009-010-012-014-046-048-049-054-250000-
EAST SLOPES AND CENTRAL MONTANA
  
CITY           SKY/WX    TMP DP  RH WIND       PRES   REMARKS
CUT BANK       PTSUNNY   64  38  38 S9G18     30.02F                  
GREAT FALLS    CLOUDY    63  42  46 E10       30.01F                  
MALMSTROM AFB  PTSUNNY   63  45  51 SE12      30.01F                  
HELENA         PTSUNNY   67  41  38 VRB6      29.98F                  
CONRAD           N/A     66  42  41 E9        30.04F                  
$$

MTZ011-013-016-021-045-047-050-051-250000-
NORTH CENTRAL MONTANA
  
CITY           SKY/WX    TMP DP  RH WIND       PRES   REMARKS
HAVRE          CLOUDY    70  35  27 E9        29.98F                  
LEWISTOWN      CLOUDY    59  47  64 VRB3      30.02F                  
N BAR RANCH    FAIR      57  43  58 NE7       30.04F                  
CHINOOK          N/A     70  37  30 CALM      29.97F                  
FORT BENTON      N/A     66  43  42 E6        30.00F                  
$$

MTZ017>020-022>027-061-062-250000-
NORTHEAST MONTANA
  
CITY           SKY/WX    TMP DP  RH WIND       PRES   REMARKS
GLASGOW        MOSUNNY   77  33  20 E17G23    29.92F                  
JORDAN           N/A     70  43  37 E16       29.94F                  
SIDNEY         PTSUNNY   63  50  63 CALM      29.95R                  
WOLF POINT     PTSUNNY   74  44  34 SE10      29.93S                  
MALTA            N/A     72  43  35 SE3       29.92F                  
PLENTYWOOD       N/A     75  34  22 E15G26    29.93F                  
POPLAR           N/A     73  43  33 SE6       29.92F                  
SCOBEY           N/A     76  34  21 E13       29.94F                  
$$

MTZ028>42-056>058-250000-
SOUTHCENTRAL AND SOUTHEAST MONTANA
  
CITY           SKY/WX    TMP DP  RH WIND       PRES   REMARKS
BAKER          CLOUDY    57  53  86 SE5       29.96F                  
BILLINGS       CLOUDY    61  45  55 NE12      29.98F                  
LIVINGSTON     LGT RAIN  54  48  80 E17       29.99F                  
MILES CITY     CLOUDY    66  48  52 E10       29.93F                  
BIG TIMBER       N/A     54  45  71 NE9       30.01F                  
EKALAKA          N/A     53  49  86 NE7       29.94F                  
FORSYTH          N/A     64  46  52 E7        29.93F                  
LAUREL           N/A     59  47  64 N7        29.97F                  
ROUNDUP          N/A     63  44  49 MISG      29.90F                  
$$

REGIONAL REPORTS...DAKOTAS
  
CITY           SKY/WX    TMP DP  RH WIND       PRES   REMARKS
WILLISTON      MOSUNNY   76  38  25 E7        29.92F                  
MINOT          CLOUDY    73  42  32 E16       29.93F                  
DICKINSON      CLOUDY    65  49  56 E13       29.92F                  
BEACH          RAIN      55  55 100 CALM      29.97S                  
CROSBY         FAIR      77  32  19 E14G21    29.93F                  
WATFORD CITY   FAIR      73  41  31 NE13G20   29.91F                  
BISMARCK       CLOUDY    65  54  67 SE3       29.92F                  
GRAND FORKS    CLOUDY    75  48  38 E5        29.91F                  
FARGO          CLOUDY    70  53  54 E9        29.91S                  
BUFFALO SD       N/A     56  53  90 N8        29.87S                  
RAPID CITY     CLOUDY    55  53  93 NE12      29.86F                  
$$

REGIONAL REPORTS...WYOMING/IDAHO/WASHINGTON
  
CITY           SKY/WX    TMP DP  RH WIND       PRES   REMARKS
GILLETTE       LGT RAIN  51  49  92 NE14      29.90S                  
SHERIDAN       RAIN      51  49  92 N10       29.95S FOG              
BUFFALO WY     LGT RAIN  49  47  93 NW13G28   29.95R FOG              
CODY           CLOUDY    48  45  87 NW9       29.99S                  
YELLOWSTONE LA   N/A     44  39  82 CALM      30.05R                  
IDAHO FALLS    PTSUNNY   66  42  41 N8        29.88F                  
SALMON         PTSUNNY   68  39  34 N8        29.89F                  
BOISE          SUNNY     78  42  27 NW18      29.82F                  
SPOKANE        CLOUDY    76  43  30 SW8       29.88F                  
$$

REGIONAL REPORTS...ALBERTA
  
CITY           SKY/WX    TMP DP  RH WIND       PRES   REMARKS
EDMONTON       SUNNY     79  30  17 E12       29.90F                  
CALGARY        PTSUNNY   70  32  24 S13G23    29.97F                  
LETHBRIDGE     PTSUNNY   72  37  28 S9G22     29.98F                  
MEDICINE HAT   PTSUNNY   75  34  22 SE9       29.96F                  
$$

REGIONAL REPORTS...SASKATCHEWAN
  
CITY           SKY/WX    TMP DP  RH WIND       PRES   REMARKS
SWIFT CURRENT  PTSUNNY   75  28  17 SE13G18   29.97F                  
REGINA         PTSUNNY   77  37  24 NE3       29.94F                  
SASKATOON      MOSUNNY   82  32  16 SW8       29.93F                  
$$

Return to Home page


Western Regional Climate Center, wrcc@dri.edu